Погода в Мерети

Россия / Новосибирская область     53°34′29″N   82°23′49″E
темп.,
°C
ветер,
м/с
пор.,
м/с
влажн.,
%
обл.,
%
осадки,
мм/ч
давл.,
гПа
погр.,
м
11 мая, вт
вт1101:00+12св51149100 0.0 1015413
04:00+9ссв4962100 0.0 1014251
07:00+9ссв4106390 0.0 1014437
10:00+13ссв574591 0.0 10141155
13:00+17ссв573395 0.0 10141964
16:00+19св672791 0.0 10132981
19:00+19св5831100 0.0 10142609
22:00+15с51145100 0.0 1016374
12 мая, ср
ср1201:00+13ссв6135083 0.0 1016540
04:00+11с51063100 0.0 1017410
07:00+10с4969100 0.0 1017373
10:00+16с464654 0.0 1017789
13:00+19с6633100 0.0 10172653
16:00+18св773849 0.0 10171971
19:00+18ссз564098 0.0 10171102
22:00+13ссз22539 0.0 101811
13 мая, чт
чт1301:00+11с115790 0.0 101710
04:00+10зюз115691 0.0 101610
07:00+10з2355100 0.0 101684
10:00+15з2344100 0.0 1015574
13:00+18з5438100 0.0 10142268
16:00+17зюз545227 0.3 10141351
19:00+14з436697 1.0 1014782
22:00+12ссз3779100 0.8 1015262
14 мая, пт
пт1401:00+11с2485100 1.6 1015181
04:00+8сз35880 0.1 101696
07:00+8сз36785 0.1 1017178
10:00+13сз454571 0.0 1019779
13:00+17ссз56379 0.0 10192146
16:00+18ссз67345 0.0 10192459
19:00+15с664015 0.0 10221482
22:00+11зсз1152100 0.0 102411
15 мая, сб
сб1501:00+9ссз115099 0.0 102510
04:00+8з22539 0.0 102510
07:00+9зюз24548 0.0 1025111
10:00+15з4536100 0.0 1025706
13:00+20з56301 0.0 10231465
16:00+22з56295 0.0 10221733
19:00+22зюз45325 0.0 10211324
22:00+16юз354566 0.0 102158